Time,TemperatureF,DewpointF,PressureIn,WindDirection,WindDirectionDegrees,WindSpeedMPH,WindSpeedGustMPH,Humidity,HourlyPrecipIn,Conditions,Clouds,dailyrainin,SolarRadiationWatts/m^2,SoftwareType,DateUTC
2013-05-07 00:02:00,54.0,47.0,-100.00,South,176,2.0,5.0,77,0.00,,,0.01,0.000000,,2013-05-07 05:02:00,
2013-05-07 00:32:00,51.0,47.0,-100.00,SE,142,4.0,5.0,86,0.00,,,0.01,0.000000,,2013-05-07 05:32:00,
2013-05-07 00:42:00,51.0,47.0,-100.00,SE,142,4.0,5.0,86,0.00,,,0.01,0.000000,,2013-05-07 05:42:00,
2013-05-07 00:52:00,51.0,47.0,-100.00,SE,142,4.0,5.0,86,0.00,,,0.01,0.000000,,2013-05-07 05:52:00,
2013-05-07 01:02:00,51.0,47.0,-100.00,SE,142,4.0,5.0,86,0.00,,,0.01,0.000000,,2013-05-07 06:02:00,
2013-05-07 01:32:00,51.0,47.0,-100.00,SE,124,3.0,5.0,85,0.00,,,0.01,0.000000,,2013-05-07 06:32:00,
2013-05-07 01:42:00,51.0,47.0,-100.00,SE,124,3.0,5.0,85,0.00,,,0.01,0.000000,,2013-05-07 06:42:00,
2013-05-07 01:52:00,51.0,47.0,-100.00,SE,124,3.0,5.0,85,0.00,,,0.01,0.000000,,2013-05-07 06:52:00,
2013-05-07 02:02:00,51.0,47.0,-100.00,SE,124,3.0,5.0,85,0.00,,,0.01,0.000000,,2013-05-07 07:02:00,
2013-05-07 02:32:00,48.0,46.0,-100.00,SSE,154,3.0,5.0,93,0.00,,,0.01,0.000000,,2013-05-07 07:32:00,
2013-05-07 02:42:00,48.0,46.0,-100.00,SSE,154,3.0,5.0,93,0.00,,,0.01,0.000000,,2013-05-07 07:42:00,
2013-05-07 02:52:00,48.0,46.0,-100.00,SSE,154,3.0,5.0,93,0.00,,,0.01,0.000000,,2013-05-07 07:52:00,
2013-05-07 03:02:00,48.0,46.0,-100.00,SSE,154,3.0,5.0,93,0.00,,,0.01,0.000000,,2013-05-07 08:02:00,
2013-05-07 03:32:00,51.0,48.0,-100.00,NNE,18,5.0,6.0,88,0.00,,,0.01,0.000000,,2013-05-07 08:32:00,
2013-05-07 03:42:00,51.0,48.0,-100.00,NNE,18,5.0,6.0,88,0.00,,,0.01,0.000000,,2013-05-07 08:42:00,
2013-05-07 03:52:00,51.0,48.0,-100.00,NNE,18,5.0,6.0,88,0.00,,,0.01,0.000000,,2013-05-07 08:52:00,
2013-05-07 04:01:00,51.0,48.0,-100.00,NNE,18,5.0,6.0,88,0.00,,,0.01,0.000000,,2013-05-07 09:01:00,
2013-05-07 04:33:00,51.0,46.0,-100.00,ESE,102,2.0,9.0,83,0.00,,,0.01,0.000000,,2013-05-07 09:33:00,
2013-05-07 04:43:00,51.0,46.0,-100.00,ESE,102,2.0,9.0,83,0.00,,,0.01,0.000000,,2013-05-07 09:43:00,
2013-05-07 04:52:00,51.0,46.0,-100.00,ESE,102,2.0,9.0,83,0.00,,,0.01,0.000000,,2013-05-07 09:52:00,
2013-05-07 05:03:00,51.0,46.0,-100.00,ESE,102,2.0,9.0,83,0.00,,,0.01,0.000000,,2013-05-07 10:03:00,
2013-05-07 05:33:00,46.0,43.0,-100.00,SSE,149,5.0,6.0,90,0.00,,,0.01,0.000000,,2013-05-07 10:33:00,
2013-05-07 05:42:00,46.0,43.0,-100.00,SSE,149,5.0,6.0,90,0.00,,,0.01,0.000000,,2013-05-07 10:42:00,
2013-05-07 05:52:00,46.0,43.0,-100.00,SSE,149,5.0,6.0,90,0.00,,,0.01,0.000000,,2013-05-07 10:52:00,
2013-05-07 06:02:00,46.0,43.0,-100.00,SSE,149,5.0,6.0,90,0.00,,,0.01,0.000000,,2013-05-07 11:02:00,
2013-05-07 06:32:00,46.0,45.0,-100.00,ESE,119,2.0,6.0,95,0.00,,,0.01,0.000000,,2013-05-07 11:32:00,
2013-05-07 06:42:00,46.0,45.0,-100.00,ESE,119,2.0,6.0,95,0.00,,,0.01,0.000000,,2013-05-07 11:42:00,
2013-05-07 06:52:00,46.0,45.0,-100.00,ESE,119,2.0,6.0,95,0.00,,,0.01,0.000000,,2013-05-07 11:52:00,
2013-05-07 07:02:00,46.0,45.0,-100.00,ESE,119,2.0,6.0,95,0.00,,,0.01,0.000000,,2013-05-07 12:02:00,
2013-05-07 07:32:00,49.0,47.0,-100.00,North,2,1.0,3.0,94,0.00,,,0.01,6.000000,,2013-05-07 12:32:00,
2013-05-07 07:42:00,49.0,47.0,-100.00,North,2,1.0,3.0,94,0.00,,,0.01,6.000000,,2013-05-07 12:42:00,
2013-05-07 07:52:00,49.0,47.0,-100.00,North,2,1.0,3.0,94,0.00,,,0.01,6.000000,,2013-05-07 12:52:00,
2013-05-07 08:02:00,49.0,47.0,-100.00,North,2,1.0,3.0,94,0.00,,,0.01,6.000000,,2013-05-07 13:02:00,
2013-05-07 08:32:00,54.0,50.0,-100.00,SE,141,0.0,2.0,85,0.00,,,-99.99,137.000000,,2013-05-07 13:32:00,
2013-05-07 08:42:00,54.0,50.0,-100.00,SE,141,0.0,2.0,85,0.00,,,-99.99,137.000000,,2013-05-07 13:42:00,
2013-05-07 08:52:00,54.0,50.0,-100.00,SE,141,0.0,2.0,85,0.00,,,-99.99,137.000000,,2013-05-07 13:52:00,
2013-05-07 09:02:00,54.0,50.0,-100.00,SE,141,0.0,2.0,85,0.00,,,-99.99,137.000000,,2013-05-07 14:02:00,
2013-05-07 09:32:00,65.0,52.0,-100.00,SE,124,6.0,9.0,63,0.00,,,0.01,375.000000,,2013-05-07 14:32:00,
2013-05-07 09:42:00,65.0,52.0,-100.00,SE,124,6.0,9.0,63,0.00,,,0.01,375.000000,,2013-05-07 14:42:00,
2013-05-07 09:52:00,65.0,52.0,-100.00,SE,124,6.0,9.0,63,0.00,,,0.01,375.000000,,2013-05-07 14:52:00,
2013-05-07 10:01:00,65.0,52.0,-100.00,SE,124,6.0,9.0,63,0.00,,,0.01,375.000000,,2013-05-07 15:01:00,
2013-05-07 10:33:00,72.0,51.0,-100.00,SE,145,10.0,15.0,47,0.00,,,0.01,624.000000,,2013-05-07 15:33:00,
2013-05-07 10:42:00,72.0,51.0,-100.00,SE,145,10.0,15.0,47,0.00,,,0.01,624.000000,,2013-05-07 15:42:00,
2013-05-07 10:53:00,72.0,51.0,-100.00,SE,145,10.0,15.0,47,0.00,,,0.01,624.000000,,2013-05-07 15:53:00,
2013-05-07 11:03:00,72.0,51.0,-100.00,SE,145,10.0,15.0,47,0.00,,,0.01,624.000000,,2013-05-07 16:03:00,
2013-05-07 13:32:00,81.0,46.0,-100.00,SE,140,12.0,20.0,29,-99.99,,,-99.99,1043.000000,,2013-05-07 18:32:00,
2013-05-07 13:42:00,81.0,46.0,-100.00,SE,140,12.0,20.0,29,-99.99,,,-99.99,1043.000000,,2013-05-07 18:42:00,
2013-05-07 13:52:00,81.0,46.0,-100.00,SE,140,12.0,20.0,29,-99.99,,,-99.99,1043.000000,,2013-05-07 18:52:00,
2013-05-07 14:02:00,81.0,46.0,-100.00,SE,140,12.0,20.0,29,-99.99,,,-99.99,1043.000000,,2013-05-07 19:02:00,
2013-05-07 14:32:00,83.0,44.0,-100.00,SE,135,12.0,19.0,25,0.00,,,0.01,1011.000000,,2013-05-07 19:32:00,
2013-05-07 14:42:00,83.0,44.0,-100.00,SE,135,12.0,19.0,25,0.00,,,0.01,1011.000000,,2013-05-07 19:42:00,
2013-05-07 14:52:00,83.0,44.0,-100.00,SE,135,12.0,19.0,25,0.00,,,0.01,1011.000000,,2013-05-07 19:52:00,
2013-05-07 15:02:00,83.0,44.0,-100.00,SE,135,12.0,19.0,25,0.00,,,0.01,1011.000000,,2013-05-07 20:02:00,
2013-05-07 15:32:00,86.0,46.0,-100.00,ESE,123,11.0,20.0,25,0.00,,,0.01,1089.000000,,2013-05-07 20:32:00,
2013-05-07 15:42:00,86.0,46.0,-100.00,ESE,123,11.0,20.0,25,0.00,,,0.01,1089.000000,,2013-05-07 20:42:00,
2013-05-07 15:52:00,86.0,46.0,-100.00,ESE,123,11.0,20.0,25,0.00,,,0.01,1089.000000,,2013-05-07 20:52:00,
2013-05-07 16:01:00,86.0,46.0,-100.00,ESE,123,11.0,20.0,25,0.00,,,0.01,1089.000000,,2013-05-07 21:01:00,
2013-05-07 16:33:00,85.0,44.0,-100.00,SE,124,13.0,21.0,24,0.00,,,0.00,864.000000,,2013-05-07 21:33:00,
2013-05-07 16:43:00,85.0,44.0,-100.00,SE,124,13.0,21.0,24,0.00,,,0.00,864.000000,,2013-05-07 21:43:00,
2013-05-07 16:53:00,85.0,44.0,-100.00,SE,124,13.0,21.0,24,0.00,,,0.00,864.000000,,2013-05-07 21:53:00,
2013-05-07 17:02:00,85.0,44.0,-100.00,SE,124,13.0,21.0,24,0.00,,,0.00,864.000000,,2013-05-07 22:02:00,
2013-05-07 17:33:00,84.0,47.0,-100.00,SE,124,12.0,21.0,28,0.00,,,0.00,441.000000,,2013-05-07 22:33:00,
2013-05-07 17:42:00,84.0,47.0,-100.00,SE,124,12.0,21.0,28,0.00,,,0.00,441.000000,,2013-05-07 22:42:00,
2013-05-07 17:52:00,84.0,47.0,-100.00,SE,124,12.0,21.0,28,0.00,,,0.00,441.000000,,2013-05-07 22:52:00,
2013-05-07 18:02:00,84.0,47.0,-100.00,SE,124,12.0,21.0,28,0.00,,,0.00,441.000000,,2013-05-07 23:02:00,
2013-05-07 18:32:00,85.0,48.0,-100.00,SE,128,16.0,23.0,28,0.00,,,0.00,320.000000,,2013-05-07 23:32:00,
2013-05-07 18:42:00,85.0,48.0,-100.00,SE,128,16.0,23.0,28,0.00,,,0.00,320.000000,,2013-05-07 23:42:00,
2013-05-07 18:52:00,85.0,48.0,-100.00,SE,128,16.0,23.0,28,0.00,,,0.00,320.000000,,2013-05-07 23:52:00,
2013-05-07 19:02:00,85.0,48.0,-100.00,SE,128,16.0,23.0,28,0.00,,,0.00,320.000000,,2013-05-08 00:02:00,
2013-05-07 19:32:00,84.0,47.0,-100.00,SE,124,15.0,25.0,28,0.00,,,-99.99,354.000000,,2013-05-08 00:32:00,
2013-05-07 19:42:00,84.0,47.0,-100.00,SE,124,15.0,25.0,28,0.00,,,-99.99,354.000000,,2013-05-08 00:42:00,
2013-05-07 19:52:00,84.0,47.0,-100.00,SE,124,15.0,25.0,28,0.00,,,-99.99,354.000000,,2013-05-08 00:52:00,
2013-05-07 20:02:00,84.0,47.0,-100.00,SE,124,15.0,25.0,28,0.00,,,-99.99,354.000000,,2013-05-08 01:02:00,
2013-05-07 20:32:00,80.0,47.0,-100.00,SE,130,11.0,19.0,32,0.00,,,0.00,94.000000,,2013-05-08 01:32:00,
2013-05-07 20:42:00,80.0,47.0,-100.00,SE,130,11.0,19.0,32,0.00,,,0.00,94.000000,,2013-05-08 01:42:00,
2013-05-07 20:52:00,80.0,47.0,-100.00,SE,130,11.0,19.0,32,0.00,,,0.00,94.000000,,2013-05-08 01:52:00,
2013-05-07 21:02:00,80.0,47.0,-100.00,SE,130,11.0,19.0,32,0.00,,,0.00,94.000000,,2013-05-08 02:02:00,
2013-05-07 21:32:00,76.0,47.0,-100.00,ESE,113,9.0,16.0,36,0.00,,,0.00,3.000000,,2013-05-08 02:32:00,
2013-05-07 21:42:00,76.0,47.0,-100.00,ESE,113,9.0,16.0,36,0.00,,,0.00,3.000000,,2013-05-08 02:42:00,
2013-05-07 21:52:00,76.0,47.0,-100.00,ESE,113,9.0,16.0,36,0.00,,,0.00,3.000000,,2013-05-08 02:52:00,
2013-05-07 22:02:00,76.0,47.0,-100.00,ESE,113,9.0,16.0,36,0.00,,,0.00,3.000000,,2013-05-08 03:02:00,
2013-05-07 22:33:00,75.0,47.0,-100.00,ESE,122,10.0,16.0,37,0.00,,,0.00,0.000000,,2013-05-08 03:33:00,
2013-05-07 22:43:00,75.0,47.0,-100.00,ESE,122,10.0,16.0,37,0.00,,,0.00,0.000000,,2013-05-08 03:43:00,
2013-05-07 22:52:00,75.0,47.0,-100.00,ESE,122,10.0,16.0,37,0.00,,,0.00,0.000000,,2013-05-08 03:52:00,
2013-05-07 23:02:00,75.0,47.0,-100.00,ESE,122,10.0,16.0,37,0.00,,,0.00,0.000000,,2013-05-08 04:02:00,
2013-05-07 23:33:00,72.0,46.0,-100.00,SE,145,6.0,16.0,40,0.00,,,0.00,0.000000,,2013-05-08 04:33:00,
2013-05-07 23:43:00,72.0,46.0,-100.00,SE,145,6.0,16.0,40,0.00,,,0.00,0.000000,,2013-05-08 04:43:00,
2013-05-07 23:53:00,72.0,46.0,-100.00,SE,145,6.0,16.0,40,0.00,,,0.00,0.000000,,2013-05-08 04:53:00,